Location: Newark
(34.3481°N, 134.0494°E)
Time: 11:24:35
(UTC+00:00)

Altair - Visible Passes

Search period start: 20 January 2020 00:00
Search period end: 30 January 2020 00:00
Orbit: 1502 x 1682 km, 47.2° (Epoch: 19 January)

Date Brightness Start Highest point End Pass type
(mag) Time Alt. Az. Time Alt. Az. Time Alt. Az.
20 Jan 10.4 21:34:14 10° SSE 21:39:16 15° ESE 21:44:19 10° E visible
21 Jan 10.2 10:06:21 10° W 10:09:33 12° WSW 10:12:44 10° SW visible
21 Jan 10.4 21:10:19 10° SE 21:14:12 13° ESE 21:18:06 10° E visible
22 Jan 10.1 09:40:00 10° W 09:44:31 14° WSW 09:48:59 10° SSW visible
22 Jan 10.5 20:47:07 10° SE 20:49:09 11° ESE 20:51:12 10° ESE visible
23 Jan 10.1 09:14:00 10° W 09:19:29 16° WSW 09:24:53 10° SSW visible
24 Jan 10.1 08:48:11 10° W 08:54:26 19° WSW 09:00:33 10° SSW visible
25 Jan 9.1 21:28:00 10° SSW 21:36:59 41° SE 21:46:10 10° ENE visible
26 Jan 9.1 21:03:09 10° SSW 21:11:52 37° SE 21:20:47 10° ENE visible
27 Jan 9.2 20:38:22 10° S 20:46:46 33° SE 20:55:23 10° ENE visible
28 Jan 9.3 20:13:36 10° S 20:21:41 30° SE 20:29:57 10° ENE visible
29 Jan 9.3 19:48:54 10° S 19:56:36 27° SE 20:04:28 10° ENE visible
